EDT,Max TemperatureF,Mean TemperatureF,Min TemperatureF,Max Dew PointF,MeanDew PointF,Min DewpointF,Max Humidity, Mean Humidity, Min Humidity, Max Sea Level PressureIn, Mean Sea Level PressureIn, Min Sea Level PressureIn, Max VisibilityMiles, Mean VisibilityMiles, Min VisibilityMiles, Max Wind SpeedMPH, Mean Wind SpeedMPH, Max Gust SpeedMPH,PrecipitationIn, CloudCover, Events, WindDirDegrees
2013-9-1,89,80,71,77,73,70,100,87,55,29.95,29.91,29.85,10,9,2,14,7,29,0.00,3,Rain-Thunderstorm,207
2013-9-2,89,80,71,77,73,72,100,85,62,29.91,29.87,29.83,10,9,5,10,6,,0.00,2,Rain-Thunderstorm,226
2013-9-3,87,78,68,77,72,64,100,91,70,29.97,29.88,29.84,10,7,2,24,5,36,0.00,1,Rain-Thunderstorm,213
2013-9-4,86,77,68,73,70,68,100,84,55,30.10,30.05,29.96,10,6,0,9,2,,0.00,3,Fog-Rain,86
2013-9-5,87,78,66,73,69,63,100,79,43,30.10,30.07,30.03,10,7,0,8,2,,0.00,1,Rain,284
2013-9-6,84,74,64,70,65,61,100,78,51,30.16,30.12,30.07,10,9,0,15,4,20,0.00,0,Rain,31
2013-9-7,80,68,55,64,59,55,100,74,45,30.14,30.09,30.02,10,9,0,8,1,,0.00,0,Rain,47
2013-9-8,87,74,62,72,65,59,100,76,43,30.02,29.97,29.92,10,10,2,9,3,,0.00,0,,240
2013-9-9,87,74,62,72,68,63,100,79,46,30.18,30.10,30.01,10,8,0,7,2,,0.00,0,Rain,111
2013-9-10,89,76,64,72,68,64,100,78,49,30.26,30.21,30.18,10,7,0,8,1,,0.00,1,Fog,196
2013-9-11,89,76,64,72,69,64,100,77,49,30.23,30.17,30.10,10,8,0,10,2,,0.00,1,Fog-Rain,189
2013-9-12,87,78,68,72,69,68,100,76,52,30.11,29.97,29.84,10,10,7,13,5,20,0.00,0,,227
2013-9-13,86,77,68,72,66,61,100,72,45,29.89,29.81,29.77,10,10,5,9,5,,0.00,0,,321
2013-9-14,77,68,59,63,55,50,94,67,44,30.16,30.03,29.88,10,10,10,17,6,20,0.00,0,,11
2013-9-15,80,66,51,63,57,52,100,74,39,30.26,30.19,30.16,10,8,0,7,1,,0.00,0,Rain,103
2013-9-16,86,73,60,72,64,59,100,80,48,30.19,30.13,30.05,10,9,1,16,3,22,0.00,2,Rain,331
2013-9-17,77,67,55,61,56,50,100,71,44,30.31,30.26,30.19,10,10,7,16,8,23,0.00,1,,34
2013-9-18,77,62,48,57,52,46,100,74,39,30.30,30.25,30.19,10,10,10,12,4,,0.00,0,,30
2013-9-19,77,64,50,63,55,48,100,76,41,30.21,30.17,30.12,10,8,0,8,1,,0.00,1,Fog,37
2013-9-20,78,68,59,64,61,57,100,78,54,30.12,30.07,30.01,10,10,10,7,1,,0.00,2,,218
2013-9-21,77,68,60,70,66,61,100,90,74,30.01,29.90,29.78,10,10,4,9,2,,0.06,2,Rain,189
2013-9-22,71,66,60,70,65,57,100,88,73,29.90,29.80,29.75,10,8,2,16,5,23,0.00,6,Rain,39
2013-9-23,71,62,53,59,54,52,100,79,50,30.10,30.03,29.91,10,10,0,13,5,,0.00,2,Fog,5
2013-9-24,73,62,50,61,54,50,100,82,50,30.12,30.06,29.99,10,7,0,7,1,,0.00,2,Fog,30
2013-9-25,73,62,50,61,56,50,100,82,53,30.00,29.95,29.90,10,8,0,7,1,,0.00,2,Fog,84
2013-9-26,78,66,53,61,57,52,100,75,39,30.05,29.95,29.89,10,9,2,15,3,18,0.00,3,,32
2013-9-27,75,65,55,61,55,50,100,74,44,30.19,30.11,30.04,10,10,10,15,7,23,0.00,1,,32
2013-9-28,77,65,53,59,57,54,100,80,53,30.23,30.19,30.16,10,10,10,14,7,21,0.00,3,,27
2013-9-29,77,66,55,61,58,54,100,84,53,30.17,30.10,30.03,10,10,10,14,5,17,0.00,3,,11
2013-9-30,77,64,51,59,54,50,100,78,41,30.09,30.06,30.01,10,8,0,12,2,16,0.00,2,Fog,9